FENGYUN 1C DEB, 30319

Orbit data source: Space-Track

FENGYUN 1C DEB, 30319 is space debris in SSO originally from a launch on Mon, 10 May 1999 UTC launched from the Taiyaun Space Center, China (TSC). Fengyun 1C debris stems from the Chinese weather satellite Fengyun-1C, which was intentionally destroyed by a Chinese anti-satellite missile in 2007. This event dramatically increased the amount of space debris, with thousands of trackable fragments posing hazards to satellites and human spaceflight. The Fengyun 1C debris cloud has become a focal point in discussions about space sustainability and the need for international regulations to prevent the creation of new debris.

Not visible in the next 10 days
FENGYUN 1C DEB details
Identifier
30319, 1999-025AAG
Orbit
SSO
Last TLE update4 days ago
Origin
Flag of CNCASC (CN / PRC)
ManufacturerUnknown
MissionDecayed spacecraft
Bus & MotorUnknown
MassUnknown
Launch date (UTC)
1999-05-10 (26 years ago)
Launch vehicleUnknown
Launch site
Taiyaun Space Center, China (TSC)
Object type
Payload
Rocket body
Debris
Shape & HBRUnknown
Radar Cross SectionSmall (<0.1 m²)

Expand to show TLE details & history

TLE from 4 days ago
0 FENGYUN 1C DEB
1 30319U 99025AAG 25022.03782530  .11055135  00000-0  50552-1 0  9999
2 30319  98.2361  61.6419 0004218   3.4121 356.7171 15.78999752933197
Epoch: 2025-01-22T00:54Z
Definitive object data (Epoch: 2025-01-22T00:54:28.105Z)
Latitude-0.00009°
Longitude-73.61064°
Altitude333.591 km
Speed7.71 km/s
True Right ascension04h 06m 34s
True Declination0° 00' 00"
Sunlit
Object was in full shadow at TLE epoch
Visualization observer readout
Observer readout values are unavailable because the object's trajectory could not be propagated. This is usually caused when the trajectory data is faulty or the object's orbit has decayed.
Visualization observer readout
Observer readout values are unavailable because the object's trajectory could not be propagated. This is usually caused when the trajectory data is faulty or the object's orbit has decayed.
Orbital elements
Apogee altitude333.029 km
Perigee altitude327.37 km
Semi-major axis6,708.337 km
Eccentricity0.0004218
Inclination98.2361°
RAAN61.6419°
Arg. of periapsis3.4121°
True anomaly356.71433°
Mean anomaly356.7171°
Eccentric anomaly356.71572°
Mean motion3.95022 °/min
BSTAR0.050552
Orbital period91.13 mins
Loading maneuver chart data...
Loading historical data...
Loading historical data...
Loading historical data...
Loading historical data...
Loading historical data...
Loading historical data...
Loading historical data...

FENGYUN 1C DEB Visibility forecast

Observer location: undefined°, undefined

FENGYUN 1C DEB is not visible in the next 10 days
Span
Click to sort rows by Start time (UTC) header in descending order
Start Az.
Max El. time (UTC)
Max El. Az.
Max El.
End time (UTC)
End Az.
|